When you browse on this site, cookies collect data to enhance your experience and personalize the content and advertising you see.
Visit our Privacy Policy to learn more. By continuing to use the site, you agree to this use of cookies and data.
  • In Schweiz
  • Länderverzeichnis
  • Für 7 Tage
  • Wassertemperatur
  • Satellitenkarten
  • Wetterkarte
  • Widgets
  • user-avatar
    Anmelden

    Stündliche Wetter Tomashivtsi

    Heute, 21 Februar, Donnerstag

    Zeit Temperatur Niederschläge Wind Luftdruck Luftfeuchtigkeit
    00:00 +1°C° 0 mm 5 m/S 741 mmHg 77%
    01:00 +1°C° 0 mm 5 m/S 741 mmHg 78%
    02:00 +1°C° 0 mm 5 m/S 741 mmHg 80%
    03:00 +1°C° 0 mm 5 m/S 742 mmHg 82%
    04:00 0°C° 0 mm 5 m/S 742 mmHg 84%
    05:00 0°C° 0 mm 5 m/S 742 mmHg 85%
    06:00 0°C° 0 mm 5 m/S 742 mmHg 85%
    07:00 0°C° 0 mm 5 m/S 742 mmHg 85%
    08:00 0°C° 0 mm 5 m/S 742 mmHg 85%
    09:00 +1°C° 0 mm 5 m/S 743 mmHg 81%
    10:00 +2°C° 0 mm 6 m/S 743 mmHg 77%
    11:00 +3°C° 0 mm 6 m/S 743 mmHg 72%
    12:00 +4°C° 0 mm 6 m/S 743 mmHg 70%
    13:00 +4°C° 0 mm 6 m/S 742 mmHg 69%
    14:00 +5°C° 0 mm 6 m/S 742 mmHg 67%
    15:00 +4°C° 0 mm 6 m/S 742 mmHg 68%
    16:00 +5°C° 0 mm 5 m/S 742 mmHg 70%
    17:00 +5°C° 0 mm 5 m/S 741 mmHg 71%
    18:00 +3°C° 0 mm 5 m/S 741 mmHg 72%
    19:00 +3°C° 0 mm 5 m/S 741 mmHg 72%
    20:00 +2°C° 0 mm 5 m/S 741 mmHg 73%
    21:00 +2°C° 0.2 mm 5 m/S 741 mmHg 74%
    22:00 +3°C° 0.2 mm 4 m/S 740 mmHg 74%
    23:00 +4°C° 0.2 mm 4 m/S 740 mmHg 74%

    Morgen, 22 Februar, Freitag

    Zeit Temperatur Niederschläge Wind Luftdruck Luftfeuchtigkeit
    00:00 +3°C° 0.3 mm 4 m/S 740 mmHg 75%
    01:00 +2°C° 0.3 mm 5 m/S 740 mmHg 76%
    02:00 +2°C° 0.3 mm 5 m/S 739 mmHg 76%
    03:00 +3°C° 0.3 mm 4 m/S 739 mmHg 78%
    04:00 +3°C° 0.3 mm 4 m/S 738 mmHg 79%
    05:00 +3°C° 0.3 mm 4 m/S 738 mmHg 80%
    06:00 +3°C° 0.7 mm 4 m/S 738 mmHg 83%
    07:00 +3°C° 0.7 mm 4 m/S 738 mmHg 86%
    08:00 +1°C° 0.7 mm 4 m/S 738 mmHg 88%
    09:00 0°C° 0.8 mm 4 m/S 739 mmHg 87%
    10:00 -2°C° 0.8 mm 5 m/S 740 mmHg 87%
    11:00 -5°C° 0.8 mm 6 m/S 741 mmHg 86%
    12:00 -5°C° 0.3 mm 6 m/S 742 mmHg 81%
    13:00 -5°C° 0.3 mm 5 m/S 743 mmHg 76%
    14:00 -4°C° 0.3 mm 5 m/S 744 mmHg 72%
    15:00 -5°C° 0 mm 5 m/S 744 mmHg 70%
    16:00 -6°C° 0 mm 5 m/S 745 mmHg 68%
    17:00 -6°C° 0 mm 5 m/S 746 mmHg 66%
    18:00 -7°C° 0 mm 5 m/S 746 mmHg 67%
    19:00 -8°C° 0 mm 4 m/S 747 mmHg 69%
    20:00 -8°C° 0 mm 4 m/S 748 mmHg 70%
    21:00 -8°C° 0 mm 4 m/S 749 mmHg 68%
    22:00 -9°C° 0 mm 4 m/S 749 mmHg 66%
    23:00 -9°C° 0 mm 4 m/S 750 mmHg 64%

    übermorgen, 23 Februar, Samstag

    Zeit Temperatur Niederschläge Wind Luftdruck Luftfeuchtigkeit
    00:00 -9°C° 0 mm 4 m/S 750 mmHg 63%
    01:00 -9°C° 0 mm 4 m/S 751 mmHg 62%
    02:00 -9°C° 0 mm 4 m/S 751 mmHg 62%
    03:00 -9°C° 0 mm 4 m/S 751 mmHg 62%
    04:00 -9°C° 0 mm 4 m/S 751 mmHg 62%
    05:00 -9°C° 0 mm 4 m/S 752 mmHg 62%
    06:00 -9°C° 0 mm 4 m/S 752 mmHg 62%
    07:00 -9°C° 0 mm 4 m/S 752 mmHg 63%
    08:00 -10°C° 0 mm 4 m/S 752 mmHg 63%
    09:00 -9°C° 0 mm 4 m/S 753 mmHg 61%
    10:00 -9°C° 0 mm 4 m/S 753 mmHg 59%
    11:00 -8°C° 0 mm 4 m/S 753 mmHg 56%
    12:00 -8°C° 0 mm 4 m/S 753 mmHg 55%
    13:00 -7°C° 0 mm 4 m/S 753 mmHg 53%
    14:00 -7°C° 0 mm 4 m/S 753 mmHg 52%
    15:00 -7°C° 0 mm 4 m/S 753 mmHg 53%
    16:00 -7°C° 0 mm 4 m/S 753 mmHg 54%
    17:00 -6°C° 0 mm 3 m/S 753 mmHg 56%
    18:00 -7°C° 0 mm 3 m/S 753 mmHg 60%
    19:00 -6°C° 0 mm 2 m/S 753 mmHg 63%
    20:00 -7°C° 0 mm 2 m/S 754 mmHg 67%
    21:00 -7°C° 0 mm 2 m/S 754 mmHg 68%
    22:00 -7°C° 0 mm 2 m/S 754 mmHg 69%
    23:00 -6°C° 0 mm 1 m/S 754 mmHg 70%

    24 Februar, Sonntag

    Zeit Temperatur Niederschläge Wind Luftdruck Luftfeuchtigkeit
    00:00 -6°C° 0 mm 1 m/S 754 mmHg 71%
    01:00 -7°C° 0 mm 2 m/S 754 mmHg 72%
    02:00 -8°C° 0 mm 2 m/S 753 mmHg 72%
    03:00 -8°C° 0 mm 2 m/S 753 mmHg 73%
    04:00 -8°C° 0 mm 2 m/S 753 mmHg 73%
    05:00 -8°C° 0 mm 2 m/S 753 mmHg 74%
    06:00 -8°C° 0 mm 2 m/S 753 mmHg 72%
    07:00 -8°C° 0 mm 2 m/S 753 mmHg 70%
    08:00 -8°C° 0 mm 3 m/S 753 mmHg 69%
    09:00 -7°C° 0 mm 3 m/S 752 mmHg 62%
    10:00 -6°C° 0 mm 3 m/S 752 mmHg 56%
    11:00 -5°C° 0 mm 3 m/S 752 mmHg 49%
    12:00 -4°C° 0 mm 3 m/S 752 mmHg 46%
    13:00 -2°C° 0 mm 3 m/S 751 mmHg 42%
    14:00 -1°C° 0 mm 3 m/S 751 mmHg 39%
    15:00 -1°C° 0 mm 3 m/S 750 mmHg 41%
    16:00 -1°C° 0 mm 2 m/S 750 mmHg 44%
    17:00 -1°C° 0 mm 2 m/S 749 mmHg 46%
    18:00 -1°C° 0 mm 2 m/S 749 mmHg 49%
    19:00 -2°C° 0 mm 2 m/S 749 mmHg 52%
    20:00 -2°C° 0 mm 2 m/S 749 mmHg 54%
    21:00 -2°C° 0 mm 3 m/S 748 mmHg 55%
    22:00 -2°C° 0 mm 3 m/S 748 mmHg 56%
    23:00 -2°C° 0 mm 3 m/S 748 mmHg 57%

    25 Februar, Montag

    Zeit Temperatur Niederschläge Wind Luftdruck Luftfeuchtigkeit
    00:00 -2°C° 0 mm 3 m/S 747 mmHg 61%
    01:00 -2°C° 0 mm 3 m/S 747 mmHg 65%
    02:00 -3°C° 0 mm 4 m/S 746 mmHg 68%
    03:00 -3°C° 0.4 mm 4 m/S 746 mmHg 77%
    04:00 -3°C° 0.4 mm 4 m/S 746 mmHg 85%
    05:00 -3°C° 0.4 mm 4 m/S 745 mmHg 93%
    06:00 -4°C° 0.5 mm 5 m/S 745 mmHg 92%
    07:00 -2°C° 0.5 mm 5 m/S 745 mmHg 91%
    08:00 -3°C° 0.5 mm 6 m/S 745 mmHg 89%
    09:00 -3°C° 0.3 mm 6 m/S 745 mmHg 90%
    10:00 -2°C° 0.3 mm 6 m/S 744 mmHg 91%
    11:00 -2°C° 0.3 mm 7 m/S 744 mmHg 91%
    12:00 -1°C° 0.1 mm 7 m/S 744 mmHg 90%
    13:00 -1°C° 0.1 mm 7 m/S 745 mmHg 89%
    14:00 -1°C° 0.1 mm 7 m/S 745 mmHg 88%
    15:00 -1°C° 0.1 mm 6 m/S 745 mmHg 87%
    16:00 -1°C° 0.1 mm 6 m/S 745 mmHg 87%
    17:00 -1°C° 0.1 mm 5 m/S 745 mmHg 86%
    18:00 -1°C° 0 mm 5 m/S 746 mmHg 86%
    19:00 -2°C° 0 mm 4 m/S 746 mmHg 87%
    20:00 -2°C° 0 mm 4 m/S 747 mmHg 87%
    21:00 -2°C° 0 mm 4 m/S 747 mmHg 87%
    22:00 -3°C° 0 mm 4 m/S 747 mmHg 87%
    23:00 -4°C° 0 mm 5 m/S 747 mmHg 87%

    26 Februar, Dienstag

    Zeit Temperatur Niederschläge Wind Luftdruck Luftfeuchtigkeit
    00:00 -4°C° 0 mm 5 m/S 747 mmHg 88%
    01:00 -4°C° 0 mm 5 m/S 747 mmHg 89%
    02:00 -5°C° 0 mm 5 m/S 746 mmHg 90%
    03:00 -5°C° 0 mm 5 m/S 746 mmHg 91%
    04:00 -5°C° 0 mm 5 m/S 745 mmHg 91%
    05:00 -5°C° 0 mm 5 m/S 745 mmHg 92%
    06:00 -4°C° 0 mm 5 m/S 745 mmHg 88%
    07:00 -4°C° 0 mm 5 m/S 744 mmHg 85%
    08:00 -4°C° 0 mm 6 m/S 744 mmHg 82%
    09:00 -3°C° 0 mm 6 m/S 743 mmHg 80%
    10:00 -2°C° 0 mm 7 m/S 743 mmHg 78%
    11:00 0°C° 0 mm 8 m/S 742 mmHg 76%
    12:00 0°C° 0 mm 7 m/S 742 mmHg 76%
    13:00 0°C° 0 mm 7 m/S 741 mmHg 76%
    14:00 +2°C° 0 mm 7 m/S 741 mmHg 76%
    15:00 +2°C° 0 mm 7 m/S 740 mmHg 79%
    16:00 +1°C° 0 mm 6 m/S 740 mmHg 81%
    17:00 +1°C° 0 mm 6 m/S 739 mmHg 83%
    18:00 +1°C° 0 mm 6 m/S 739 mmHg 84%
    19:00 +1°C° 0 mm 6 m/S 739 mmHg 86%
    20:00 +1°C° 0 mm 6 m/S 739 mmHg 87%
    21:00 0°C° 0.2 mm 7 m/S 738 mmHg 87%
    22:00 0°C° 0.2 mm 7 m/S 737 mmHg 86%
    23:00 +1°C° 0.2 mm 8 m/S 737 mmHg 86%
    Mehr zeigen